This is the latest recevied weather packets stored in our database for station/object OH3FZQ-L1. If no packets are shown the sender has not sent any weather packets the latest 10 day(s).
| Time | Temp. | Humidity | Pressure | Rain* | Wind** | Luminosity | Snow |
|---|---|---|---|---|---|---|---|
| 1777881788 | 21.67° C | 43% | 995.9 hPa | - | - | - | - |
| 1777880888 | 21.67° C | 44% | 995.8 hPa | - | - | - | - |
| 1777879988 | 21.67° C | 43% | 996 hPa | - | - | - | - |
| 1777879088 | 21.67° C | 43% | 996 hPa | - | - | - | - |
| 1777878188 | 21.67° C | 43% | 996.1 hPa | - | - | - | - |
| 1777877288 | 21.67° C | 44% | 996.3 hPa | - | - | - | - |
| 1777876388 | 21.67° C | 44% | 996.3 hPa | - | - | - | - |
| 1777875488 | 21.67° C | 44% | 996.6 hPa | - | - | - | - |
| 1777874587 | 21.67° C | 44% | 996.6 hPa | - | - | - | - |
| 1777873687 | 21.67° C | 44% | 996.9 hPa | - | - | - | - |
| 1777872790 | 21.67° C | 45% | 996.9 hPa | - | - | - | - |
| 1777871889 | 21.67° C | 45% | 996.9 hPa | - | - | - | - |
| 1777870989 | 21.67° C | 45% | 997.2 hPa | - | - | - | - |
| 1777870089 | 21.67° C | 46% | 997.3 hPa | - | - | - | - |
| 1777869189 | 21.67° C | 48% | 997.5 hPa | - | - | - | - |
| 1777868289 | 22.22° C | 49% | 997.7 hPa | - | - | - | - |
| 1777867389 | 22.22° C | 50% | 997.9 hPa | - | - | - | - |
| 1777866489 | 22.22° C | 56% | 997.9 hPa | - | - | - | - |
| 1777865589 | 22.22° C | 42% | 998 hPa | - | - | - | - |
| 1777864688 | 21.67° C | 42% | 998.1 hPa | - | - | - | - |
| 1777863789 | 21.67° C | 41% | 998.3 hPa | - | - | - | - |
| 1777862888 | 21.67° C | 41% | 998.4 hPa | - | - | - | - |
| 1777861988 | 21.67° C | 42% | 998.6 hPa | - | - | - | - |
| 1777861088 | 21.67° C | 42% | 998.4 hPa | - | - | - | - |
| 1777860188 | 22.22° C | 43% | 998.6 hPa | - | - | - | - |
* Rain since midnight (hover to see other rain measurements)
** Current wind speed in m/s (hover to see current wind gust speed)